Location: Unspecified
(0.0000°N, 0.0000°E)
Time: 16:05:40
(UTC+00:00)

Vanguard 1 - Pass Details

Date: 15 December 2025
Orbit: 651 x 3820 km, 34.2° (Epoch: 14 January)

Event Time Altitude Azimuth Distance (km) Brightness Sun altitude
Rises 19:51:37 0° 276° (W) 7,308 15.4 -26.5°
Reaches altitude 10° 19:57:11 10° 267° (W) 6,586 15.1 -27.7°
Maximum altitude 20:16:24 33° 210° (SSW) 5,161 14.0 -32.0°
Drops below altitude 10° 20:34:26 10° 151° (SSE) 6,095 14.1 -36.0°
Sets 20:39:28 0° 141° (SE) 6,716 14.2 -37.1°
